Regional Weather Roundup
Issued by NWS

Home | Current Version | Previous Version | Text Only | Print | Product List | Glossary Off
Versions: 1 2 3 4 5 6 7 8 9 10 11 12 13 14 15 16 17 18 19 20 21 22 23 24 25 26 27 28 29 30 31 32 33 34 35 36 37 38 39 40 41 42 43 44 45 46 47 48 49 50

000
ASUS43 KMPX 311801
RWRMN
WEATHER ROUNDUP FOR MINNESOTA
NATIONAL WEATHER SERVICE TWIN CITIES/CHANHASSEN MN
1200 PM CST SAT JAN 31 2015


NOTE: "FAIR" INDICATES FEW OR NO CLOUDS BELOW 12,000 FEET WITH NO
SIGNIFICANT WEATHER AND/OR OBSTRUCTIONS TO VISIBILITY. N/A MEANS
CURRENT SKY AND/OR WEATHER CONDITIONS ARE NOT AVAILABLE.

MNZ060>063-068>070-311900-
   Twin Cities Metro

CITY           SKY/WX    TMP DP  RH WIND       PRES   REMARKS
TWIN CITIES    CLOUDY    28  20  71 NE9       30.21S WCI  19
6HR MIN TEMP:  19; 6HR MAX TEMP:  28;

ST PAUL        CLOUDY    28  20  71 N9        30.22F WCI  19
CRYSTAL        CLOUDY    29  20  69 NE8       30.21S WCI  21
LAKEVILLE      PTSUNNY   27  23  86 NE7       30.19S WCI  19
EDEN PRAIRIE   CLOUDY    29  21  72 N8        30.20S WCI  21
6HR MIN TEMP:  18; 6HR MAX TEMP:  29;

SOUTH ST PAUL  CLOUDY    29  21  73 NE7       30.20S WCI  22
LAKE ELMO      CLOUDY    30  23  74 NE6       30.21F WCI  24
$$
MNZ001>005-007-008-013>017-022>024-027-028-311900-
   Northwest Minnesota

CITY           SKY/WX    TMP DP  RH WIND       PRES   REMARKS
BEMIDJI        SUNNY      7  -4  61 N10       30.30F WCI  -8
HALLOCK        SUNNY     -2 -11  65 N16       30.50R WCI -23
ROSEAU         SUNNY      0  -9  65 N15       30.44S WCI -20
WARROAD        SUNNY      0 -11  60 N10       30.43S WCI -17
THIEF RVR FALL SUNNY      1  -8  66 N15       30.41R WCI -18
CROOKSTON      MOSUNNY    7  -6  56 N18G25    30.43F WCI -12
FOSSTON        SUNNY      9   1  72 N15       30.35S WCI  -8
DETROIT LAKES  SUNNY     14   3  62 NE10      30.29F WCI   1
MOORHEAD       SUNNY     12   0  57 N17       30.37S WCI  -5
PARK RAPIDS    SUNNY     17  -6  35 NE8       30.26F WCI   7
MAHNOMEN       FAIR       9  -3  57 N16       30.32F WCI  -9
$$
MNZ006-009>011-018-025>026-311900-
   North Central Minnesota

CITY           SKY/WX    TMP DP  RH WIND       PRES   REMARKS
BAUDETTE       SUNNY     -1  -9  68 NW14      30.39R WCI -20
FLAG ISLAND    SUNNY     -4 -11  71 N13       30.43S WCI -23
INTL FALLS     MOSUNNY    5  -4  66 N12       30.34S WCI -11
6HR MIN TEMP:   4; 6HR MAX TEMP:  11; 6HR PCP: TRACE;

WASKISH        SUNNY      7  -2  66 NW6       30.36S WCI  -3
BIG FORK       PTSUNNY   10   1  67 N8        30.30S WCI  -1
LONGVILLE      SUNNY     16   3  57 NW6       30.27F WCI   7
GRAND RAPIDS   SUNNY     16   1  53 N10G18    30.25S WCI   3
CRANE LAKE     MOSUNNY    7  -2  66 N6        30.34S WCI  -3
ORR            MOSUNNY   10  -2  56 NW7       30.27R WCI   0
COOK           SUNNY     10  -2  56 N7        30.28S WCI   0
WALKER         FAIR      11  -6  47 N9        30.29S WCI  -2
$$
MNZ012-019>021-037-311900-
   Northeast Minnesota

CITY           SKY/WX    TMP DP  RH WIND       PRES   REMARKS
DULUTH         MOSUNNY   19   5  54 N13       30.21R WCI   6
6HR MIN TEMP:  18; 6HR MAX TEMP:  20; 6HR PCP: TRACE;

ELY            MOSUNNY   10   0  61 NW10G16   30.25R WCI  -3
HIBBING        SUNNY     16   1  51 N9        30.25S WCI   4
EVELETH        SUNNY     16   3  57 N10G16    30.25S WCI   3
DULUTH HARBOR  SUNNY     23   9  54 N9        30.28S WCI  13
TWO HARBORS    PTSUNNY   21   9  58 N5        30.22S WCI  15
SILVER BAY     MOSUNNY   21   5  49 W7        30.22S WCI  13
GRAND MARAIS     N/A     16   0  49 VRB5      30.27R WCI   9
G MARAIS ARPRT SUNNY      7  -6  56 NW10G16   30.17R WCI  -8
$$
MNZ029>031-032-039>041-046>048-054>057-064-311900-
   West Central Minnesota

CITY           SKY/WX    TMP DP  RH WIND       PRES   REMARKS
FERGUS FALLS   MOSUNNY   18   7  62 N12G17    30.30F WCI   5
WHEATON        CLOUDY    16  10  79 N15       30.29S WCI   1
MORRIS         CLOUDY    21  19  93 N10       30.23S WCI  10
ALEXANDRIA     MOSUNNY   24  14  65 NE16      30.21F WCI  11
ELBOW LAKE     CLOUDY    20  13  75 NE14      30.24F WCI   7
WADENA         SUNNY     19  -2  38 N16       30.24F WCI   5
GLENWOOD       PTSUNNY   23  18  80 N14       30.21F WCI  11
APPLETON       CLOUDY    25  19  80 N13       30.24S WCI  13
BENSON         CLOUDY    25  19  80 E7        30.23S WCI  17
ORTONVILLE     CLOUDY    18  14  86 N16       30.25S WCI   3
MADISON        CLOUDY    25  23  93 N10       30.24S WCI  15
WILLMAR        CLOUDY    27  21  80 NE13      30.23S WCI  16
$$
MNZ033>034-036-042>043-049>051-058-059-311900-
   Central Minnesota

CITY           SKY/WX    TMP DP  RH WIND       PRES   REMARKS
ST CLOUD       CLOUDY    26  16  65 NE9       30.22S WCI  17
6HR MIN TEMP:  24; 6HR MAX TEMP:  26;

SAUK CENTRE    FAIR      26  14  60 NE13      30.21F WCI  15
PAYNESVILLE    CLOUDY    22  17  82 N9        30.22R WCI  12
AITKIN         SUNNY     25   9  50 N9        30.23F WCI  15
PINE RIVER     SUNNY     18   5  57 N10       30.28F WCI   6
BRAINERD       CLOUDY    22   6  50 N9        30.25S WCI  12
STAPLES        MOSUNNY   21   5  49 N15       30.24F WCI   8
LONG PRAIRIE   FAIR      23  12  63 N10G17    30.21F WCI  12
LITTLE FALLS   SUNNY     27  14  59 N6        30.22F WCI  20
LITCHFIELD     CLOUDY    27  25  93 NE7       30.22S WCI  19
BUFFALO        CLOUDY    27  21  76 N8        30.22F WCI  19
MAPLE LAKE     CLOUDY    28  22  80 NE8       30.22F WCI  19
$$
MNZ037-044-045-052-053-311900-
   East Central Minnesota

CITY           SKY/WX    TMP DP  RH WIND       PRES   REMARKS
PRINCETON      CLOUDY    28  18  64 N10       30.22S WCI  19
MORA           PTSUNNY   27  14  59 N7        30.23F WCI  19
CAMBRIDGE      CLOUDY    28  18  64 N6        30.20S WCI  22
RUSH CITY      CLOUDY    28  18  66 NE10G17   30.22F WCI  18
MOOSE LAKE     SUNNY     25  10  54 N9        30.22S WCI  15
HINCKLEY       MOCLDY    28  16  59 N10G16    30.22F WCI  19
CLOQUET        PTSUNNY   19   7  58 N8G18     30.22F WCI   9
MCGREGOR       SUNNY     23  10  58 N8        30.25F WCI  14
$$
MNZ071>073-080-081-089-090-097-098-311900-
   Southwest Minnesota

CITY           SKY/WX    TMP DP  RH WIND       PRES   REMARKS
MONTEVIDEO     CLOUDY    25  23  93 E9        30.24S WCI  15
GRANITE FALLS  CLOUDY    25  23  92 NE7       30.23F WCI  17
CANBY          CLOUDY    23  21  93 N8        30.24S FOG     WCI  14
MARSHALL       CLOUDY    25  19  80 N14       30.21F WCI  13
REDWOOD FALLS  CLOUDY    27  24  89 N6        30.20S WCI  20
OLIVIA         CLOUDY    27  23  86 NE12      30.20F WCI  16
PIPESTONE      FOG       23  21  93 NE8       30.12F VSB 1/2 WCI  14
WINDOM         CLOUDY    27  25  93 N13       30.15F FOG     WCI  16
WORTHINGTON    CLOUDY    27  25  93 N14       30.13F WCI  15
JACKSON        CLOUDY    28  27  93 N14       30.14F WCI  17
TRACY          FOG       26  25  97 N9        30.18F VSB 1   WCI  16
SLAYTON        FOG       24  23  97 N8        30.15F VSB 1/2 WCI  15
$$
MNZ065>067-074>077-082>085-091>093-311900-
   South Central Minnesota

CITY           SKY/WX    TMP DP  RH WIND       PRES   REMARKS
MANKATO        CLOUDY    28  25  86 NE8       30.18S WCI  20
NEW ULM        CLOUDY    27  25  93 NE7       30.19F WCI  19
ST JAMES       CLOUDY    28  25  86 N9        30.18F FOG     WCI  20
FAIRMONT       CLOUDY    27  23  86 NE9       30.14F VSB 3/4 WCI  17
GLENCOE        CLOUDY    29  26  89 N8        30.19F WCI  21
FARIBAULT      CLOUDY    28  25  86 N7        30.18S WCI  21
OWATONNA       PTSUNNY   28  25  86 E3        30.16F
WASECA         CLOUDY    30  27  86 NE6       30.18S FOG     WCI  24
ALBERT LEA     CLOUDY    32  28  86 E8        30.14F FOG     WCI  25
$$
MNZ078>079-086>088-094>096-311900-
   Southeast Minnesota

CITY           SKY/WX    TMP DP  RH WIND       PRES   REMARKS
ROCHESTER      CLOUDY    29  24  82 N7        30.15F WCI  22
6HR MIN TEMP:  20; 6HR MAX TEMP:  30;

RED WING       CLOUDY    30  23  74 NE3       30.19S
STANTON        CLOUDY    30  25  82 NE8       30.17F WCI  22
DODGE CENTER   CLOUDY    28  27  93 NE6       30.15F FOG     WCI  22
WINONA         CLOUDY    30  23  74 CALM      30.20S
AUSTIN         CLOUDY    30  27  86 E6        30.14F WCI  24
PRESTON        CLOUDY    28  24  84 NE6       30.15F WCI  22
$$
ABBREVIATIONS USED IN REMARKS
   TC - TEMPERATURES IN CELSIUS
  WCI - WIND CHILL INDEX
   HX - HEAT INDEX
  VSB - VISIBILITY
$$



USA.gov is the U.S. government's official web portal to all federal, state and local government web resources and services.